Location: Hamburg
(53.5500°N, 10.0000°E)
Time: 06:17:11
(UTC+02:00)

Daily predictions for brighter satellites

Satellite Brightness Start Highest point End
(mag) Time Altitude Azimuth Time Altitude Azimuth Time Altitude Azimuth
ASTEX 1 4.1 22:13:39 10° S 22:18:28 55° W 22:23:18 10° NNW
MetOp-B 4.4 22:13:58 10° S 22:19:19 71° WSW 22:24:42 10° NNW
Cosmos 2112 Rocket 4.4 22:16:43 10° SW 22:21:55 70° WNW 22:27:08 10° NNE
Cosmos 2278 4.2 22:18:15 10° NW 22:23:52 60° WSW 22:29:27 10° SSE
Cosmos 1726 Rocket 3.9 22:20:45 10° NNW 22:25:05 67° W 22:29:22 10° S
Cosmos 1766 4.3 22:21:57 10° N 22:25:32 32° ENE 22:29:04 10° SE
Cosmos 2181 Rocket 4.1 22:20:29 10° S 22:26:45 65° E 22:32:57 10° NNE
COSMOS 2406 4.0 22:23:29 10° SW 22:29:09 60° NW 22:34:49 10° NNE
Cosmos 2082 Rocket 2.9 22:24:10 10° S 22:29:15 35° ESE 22:34:20 10° NE
Cosmos 1441 Rocket 4.4 22:26:03 10° SW 22:29:38 44° WNW 22:33:16 10° N
Cosmos 1025 Rocket 3.6 22:26:32 10° SSW 22:30:46 62° WNW 22:35:01 10° N
Meteor 1-22 Rocket 4.3 22:26:55 10° N 22:32:10 59° ENE 22:37:29 10° SSE
H-2A R/B 2.0 22:27:29 10° SSE 22:32:28 84° ENE 22:37:38 10° NNW
ISS -3.3 22:30:23 10° SW 22:33:27 37° SSE 22:36:32 10° E
Lacrosse 5 rocket 2.0 22:30:35 10° WNW 22:35:11 65° NNE 22:39:49 10° E
USA 245 3.1 22:34:35 10° S 22:36:52 40° WSW 22:39:02 10° NNW
Okean 2 3.9 22:35:00 10° SSW 22:39:03 62° WNW 22:43:08 10° N
Cosmos 2058 Rocket 3.5 22:37:17 10° NNW 22:41:40 62° W 22:46:03 10° S
Cosmos 1697 Rocket 2.8 22:37:01 10° NW 22:42:40 77° WSW 22:48:16 10° SSE
CARTOSAT-1 3.8 22:38:43 10° SSE 22:42:57 58° ENE 22:47:13 10° N
Cosmos 2360 4.4 22:40:34 10° NNW 22:46:18 69° NE 22:51:53 11° SE
Cosmos 1656 4.1 22:41:29 10° NW 22:46:48 55° WSW 22:52:08 10° S
DMSP B5D2-2 4.5 22:45:01 10° NNE 22:50:08 46° E 22:55:12 10° S
SL-16 R/B 3.2 22:44:46 10° NNW 22:50:09 41° NE 22:55:30 10° ESE
Cosmos 1758 4.5 22:51:10 10° N 22:54:46 31° ENE 22:58:03 12° SE
Cosmos 1805 4.1 22:52:35 10° N 22:56:16 37° ENE 22:59:29 13° SE
SL-8 Rocket 4.3 22:51:44 10° NNW 22:57:58 72° W 23:04:14 10° S
Cosmos 1420 Rocket 4.2 22:53:54 10° NNW 22:59:11 73° WSW 23:04:07 11° SSE
NOSS 3-1 (C) 4.2 22:53:36 10° NW 23:00:46 73° NE 23:08:53 10° ESE
Meteor 1-4 Rocket 3.0 22:59:11 10° NNW 23:02:45 56° W 23:06:14 10° S
Cosmos 1812 Rocket 3.6 22:58:48 10° N 23:03:19 76° E 23:07:21 13° SSE
IGS 5A 3.5 22:59:30 12° SSE 23:03:21 82° ENE 23:07:33 10° NNW
Cosmos 2366 rocket 4.1 22:58:01 10° NNW 23:04:14 83° W 23:10:22 10° S
Cosmos 1833 Rocket 2.8 22:59:17 10° S 23:04:45 56° ESE 23:10:16 10° NE
Landsat 7 4.1 23:00:15 10° S 23:05:00 69° WSW 23:09:47 10° NNW
ATLAS CENTAUR R/B 1.8 23:02:15 10° NW 23:05:55 48° NE 23:09:28 10° ESE
Orbus 7S? 4.3 22:57:30 10° WNW 23:06:25 67° SW 23:09:56 13° SE
H-2A R/B 2.2 23:03:31 12° SSE 23:07:45 88° WSW 23:12:18 10° NNW
Cosmos 1110 Rocket 4.5 23:04:25 10° NNW 23:09:37 54° ENE 23:14:16 12° SE
Cosmos 1452 Rocket 4.5 23:08:45 10° NW 23:13:40 41° WSW 23:18:35 10° S
Cosmos 1626 Rocket 3.5 23:14:25 10° S 23:18:43 81° E 23:23:05 10° NNE
Iridium 2 3.7 23:15:20 10° N 23:19:09 69° E 23:22:05 16° SSE
Terra 2.0 23:15:38 12° S 23:20:01 70° WSW 23:24:48 10° NNW
Cosmos 1066 Rocket 4.3 23:16:27 10° SSW 23:22:00 81° WNW 23:27:45 10° NNE
USA 229 DEB 4.1 23:20:24 10° NW 23:27:21 59° SW 23:33:22 15° SSE
USA 229 4.1 23:20:31 10° NW 23:27:28 59° SW 23:33:29 15° SSE
Tiangong 2 3.4 23:26:58 10° SSW 23:27:28 11° SSW 23:27:28 11° SSW
CZ-4C R/B 3.3 23:25:40 17° SSE 23:28:13 63° ENE 23:31:55 10° N
Cosmos 1271 Rocket 2.8 23:24:51 10° NNW 23:28:45 75° W 23:31:49 16° S
Cosmos 2360 Rocket 3.4 23:24:33 10° NNW 23:29:49 37° NE 23:35:02 10° ESE
Cosmos 389 Rocket 2.7 23:26:26 10° N 23:29:53 55° ENE 23:32:10 19° SSE
Cosmos 1842 3.5 23:27:37 16° S 23:30:34 55° E 23:34:27 10° NNE
Cosmos 1980 Rocket 2.6 23:25:39 10° NW 23:31:13 57° WSW 23:35:47 15° S
Cosmos 1825 Rocket 4.1 23:29:34 17° SSE 23:32:32 41° E 23:36:37 10° NNE
ATLAS 2AS CENTAUR R/B 4.1 23:25:23 10° NW 23:33:16 47° NNE 23:40:53 10° E
NOSS 3-1 (A) 4.1 23:26:48 10° NW 23:34:03 81° NE 23:42:14 10° SE
COSMOS 2487 3.7 23:32:30 10° SW 23:35:56 43° WNW 23:39:23 10° NNE
USA 234 3.5 23:30:06 10° E 23:36:39 75° NNE 23:43:10 10° WNW
SeaSat 1 3.2 23:34:47 11° ESE 23:39:25 49° NE 23:44:11 10° NNW
Cosmos 1733 3.9 23:36:47 10° N 23:40:27 43° ENE 23:42:57 18° SE
ALOS 2 3.9 23:37:31 12° ESE 23:40:57 31° ENE 23:44:51 10° N
Spot 4 3.9 23:37:19 16° S 23:41:08 79° WSW 23:45:59 10° NNW
Lacrosse 5 3.7 23:41:09 13° SE 23:41:30 13° ESE 23:43:47 10° E
Cosmos 2322 Rocket 2.3 23:36:37 10° NNW 23:42:22 79° ENE 23:47:00 16° SE
BREEZE-M DEB (TANK) 3.9 23:42:29 16° SE 23:42:30 16° SE 23:45:39 10° E
Cosmos 2098 Rocket 4.4 23:40:39 10° N 23:44:35 34° ENE 23:48:28 14° SE
Timation 2 Rocket 3.9 23:39:15 10° SSW 23:45:31 69° ESE 23:51:35 10° NE
PSLV R/B 4.1 23:44:25 17° SSW 23:46:12 35° W 23:48:51 10° NNW
Meteor 1-21 4.3 23:42:17 11° S 23:47:44 86° ESE 23:53:33 10° NNE
Cosmos 1953 2.3 23:45:15 10° NNW 23:49:21 89° WSW 23:52:08 20° S
Cosmos 1934 Rocket 4.2 23:43:52 10° N 23:50:14 65° ENE 23:55:09 17° SSE
Cosmos 1544 3.7 23:48:53 10° NNW 23:52:24 49° W 23:54:55 17° SSW
Cosmos 1602 Rocket 4.3 23:49:48 10° SSW 23:54:01 51° WNW 23:58:16 10° N
Cosmos-2242 3.4 23:49:48 10° N 23:54:03 52° ENE 23:56:52 19° SE
